08-01-2022, 00:00:05,    219,    0.0,   -0.1,   0.00,   0.00, 1009.5,   94.6, -999.0
08-01-2022, 00:00:15,    219,    0.0,   -0.1,   0.00,   0.00, 1009.5,   94.5, -999.0
08-01-2022, 00:00:24,    230,    0.7,    0.0,   0.00,   0.00, 1009.7,   94.8, -999.0
08-01-2022, 00:00:35,    224,    0.4,    0.0,   0.00,   0.00, 1009.6,   94.7, -999.0
08-01-2022, 00:00:45,    228,    1.5,    0.0,   0.00,   0.00, 1009.7,   95.0, -999.0
08-01-2022, 00:00:54,    231,    0.9,   -0.1,   0.00,   0.00, 1009.7,   95.0, -999.0
08-01-2022, 00:01:04,    231,    0.2,    0.0,   0.00,   0.00, 1009.7,   94.9, -999.0
08-01-2022, 00:01:14,    231,    0.0,   -0.1,   0.00,   0.00, 1009.6,   94.6, -999.0
08-01-2022, 00:01:24,    231,    0.0,   -0.1,   0.00,   0.00, 1009.6,   94.6, -999.0
08-01-2022, 00:01:34,    194,    0.0,    0.0,   0.00,   0.00, 1009.6,   94.6, -999.0
08-01-2022, 00:01:44,    194,    0.1,    0.0,   0.00,   0.00, 1009.6,   94.7, -999.0
08-01-2022, 00:01:54,    197,    0.1,   -0.1,   0.00,   0.00, 1009.6,   94.6, -999.0
08-01-2022, 00:02:04,    196,    0.7,    0.0,   0.00,   0.00, 1009.7,   94.9, -999.0
08-01-2022, 00:02:14,    200,    0.4,    0.0,   0.00,   0.00, 1009.7,   94.7, -999.0
08-01-2022, 00:02:24,    200,    0.0,    0.0,   0.00,   0.00, 1009.6,   94.5, -999.0
08-01-2022, 00:02:34,    200,    0.0,   -0.1,   0.00,   0.00, 1009.6,   94.5, -999.0
08-01-2022, 00:02:44,    200,    0.0,    0.0,   0.00,   0.00, 1009.6,   94.5, -999.0
08-01-2022, 00:02:54,    200,    0.0,   -0.1,   0.00,   0.00, 1009.6,   94.5, -999.0
08-01-2022, 00:03:04,    200,    0.0,    0.0,   0.00,   0.00, 1009.6,   94.4, -999.0
08-01-2022, 00:03:14,    200,    0.0,    0.0,   0.00,   0.00, 1009.6,   94.5, -999.0
08-01-2022, 00:03:24,    200,    0.0,    0.0,   0.00,   0.00, 1009.6,   94.4, -999.0
08-01-2022, 00:03:33,    200,    0.3,   -0.1,   0.00,   0.00, 1009.7,   94.6, -999.0
08-01-2022, 00:03:44,    254,    0.3,    0.0,   0.00,   0.00, 1009.7,   94.7, -999.0
08-01-2022, 00:03:54,    229,    0.4,    0.1,   0.00,   0.00, 1009.7,   94.7, -999.0
08-01-2022, 00:04:03,    229,    0.0,    0.0,   0.00,   0.00, 1009.6,   94.5, -999.0
08-01-2022, 00:04:14,    238,    0.1,    0.0,   0.00,   0.00, 1009.7,   94.7, -999.0
08-01-2022, 00:04:23,    238,    0.0,    0.0,   0.00,   0.00, 1009.6,   94.5, -999.0
08-01-2022, 00:04:33,    238,    0.0,   -0.1,   0.00,   0.00, 1009.6,   94.5, -999.0
08-01-2022, 00:04:43,    238,    0.0,   -0.1,   0.00,   0.00, 1009.6,   94.4, -999.0
08-01-2022, 00:04:53,    243,    0.0,   -0.1,   0.00,   0.00, 1009.5,   94.3, -999.0
08-01-2022, 00:05:03,    238,    0.0,    0.0,   0.00,   0.00, 1009.5,   94.3, -999.0
08-01-2022, 00:05:13,    238,    0.0,   -0.1,   0.00,   0.00, 1009.5,   94.3, -999.0
08-01-2022, 00:05:23,    238,    0.0,   -0.1,   0.00,   0.00, 1009.5,   94.3, -999.0
08-01-2022, 00:05:33,    238,    0.0,   -0.1,   0.00,   0.00, 1009.5,   94.2, -999.0
08-01-2022, 00:05:43,    238,    0.0,    0.0,   0.00,   0.00, 1009.5,   94.3, -999.0
08-01-2022, 00:05:53,    238,    0.0,   -0.1,   0.00,   0.00, 1009.5,   94.3, -999.0
08-01-2022, 00:06:03,    238,    0.0,    0.0,   0.00,   0.00, 1009.5,   94.3, -999.0
08-01-2022, 00:06:13,    238,    0.0,    0.0,   0.00,   0.00, 1009.5,   94.3, -999.0
08-01-2022, 00:06:23,    244,    0.5,    0.0,   0.00,   0.00, 1009.6,   94.6, -999.0
08-01-2022, 00:06:33,    244,    0.0,    0.1,   0.00,   0.00, 1009.5,   94.3, -999.0
08-01-2022, 00:06:43,    244,    0.0,   -0.1,   0.00,   0.00, 1009.5,   94.3, -999.0
08-01-2022, 00:06:53,    244,    0.0,    0.0,   0.00,   0.00, 1009.5,   94.3, -999.0
08-01-2022, 00:07:02,    244,    0.0,   -0.1,   0.00,   0.00, 1009.6,   94.3, -999.0
08-01-2022, 00:07:12,    244,    0.0,    0.0,   0.00,   0.00, 1009.5,   94.2, -999.0
08-01-2022, 00:07:23,    244,    0.0,   -0.1,   0.00,   0.00, 1009.5,   94.3, -999.0
08-01-2022, 00:07:32,    244,    0.0,   -0.1,   0.00,   0.00, 1009.5,   94.3, -999.0
08-01-2022, 00:07:42,    244,    0.0,    0.0,   0.00,   0.00, 1009.5,   94.3, -999.0
08-01-2022, 00:07:52,    239,    0.0,    0.0,   0.00,   0.00, 1009.5,   94.3, -999.0
08-01-2022, 00:08:02,    239,    0.0,   -0.1,   0.00,   0.00, 1009.5,   94.3, -999.0
08-01-2022, 00:08:12,    239,    0.2,    0.0,   0.00,   0.00, 1009.5,   94.4, -999.0
08-01-2022, 00:08:22,    239,    0.0,    0.0,   0.00,   0.00, 1009.5,   94.3, -999.0
08-01-2022, 00:08:32,    238,    0.0,   -0.1,   0.00,   0.00, 1009.5,   94.3, -999.0
08-01-2022, 00:08:42,    237,    0.0,    0.0,   0.00,   0.00, 1009.5,   94.3, -999.0
08-01-2022, 00:08:52,    237,    0.0,    0.0,   0.00,   0.00, 1009.4,   94.2, -999.0
08-01-2022, 00:09:02,    238,    0.0,    0.0,   0.00,   0.00, 1009.4,   94.2, -999.0
08-01-2022, 00:09:12,    237,    0.0,    0.0,   0.00,   0.00, 1009.5,   94.3, -999.0
08-01-2022, 00:09:22,    237,    0.0,    0.0,   0.00,   0.00, 1009.5,   94.4, -999.0
08-01-2022, 00:09:32,    237,    0.0,    0.0,   0.00,   0.00, 1009.5,   94.3, -999.0
08-01-2022, 00:09:41,    243,    0.1,   -0.1,   0.00,   0.00, 1009.6,   94.5, -999.0
08-01-2022, 00:09:52,    194,    0.5,    0.1,   0.00,   0.00, 1009.7,   94.7, -999.0
08-01-2022, 00:10:02,    232,    1.1,    0.1,   0.00,   0.00, 1009.7,   94.6, -999.0
08-01-2022, 00:10:11,    231,    1.7,    0.1,   0.00,   0.00, 1009.7,   94.6, -999.0
08-01-2022, 00:10:21,    231,    1.6,    0.1,   0.00,   0.00, 1009.7,   94.7, -999.0
08-01-2022, 00:10:32,    234,    1.2,    0.1,   0.00,   0.00, 1009.7,   94.6, -999.0
08-01-2022, 00:10:41,    234,    0.6,    0.1,   0.00,   0.00, 1009.7,   94.6, -999.0
08-01-2022, 00:10:51,    240,    0.4,    0.1,   0.00,   0.00, 1009.7,   94.6, -999.0
08-01-2022, 00:11:02,    240,    0.1,    0.0,   0.00,   0.00, 1009.6,   94.4, -999.0
08-01-2022, 00:11:11,    241,    0.0,    0.0,   0.00,   0.00, 1009.5,   94.2, -999.0
08-01-2022, 00:11:21,    239,    1.2,    0.1,   0.00,   0.00, 1009.7,   94.6, -999.0
08-01-2022, 00:11:31,    238,    1.0,    0.0,   0.00,   0.00, 1009.7,   94.6, -999.0
08-01-2022, 00:11:41,    239,    0.9,    0.0,   0.00,   0.00, 1009.7,   94.4, -999.0
08-01-2022, 00:11:51,    237,    0.0,    0.0,   0.00,   0.00, 1009.6,   94.2, -999.0
08-01-2022, 00:12:01,    245,    0.4,    0.0,   0.00,   0.00, 1009.7,   94.4, -999.0
08-01-2022, 00:12:11,    245,    0.1,   -0.1,   0.00,   0.00, 1009.6,   94.4, -999.0
08-01-2022, 00:12:21,    245,    0.0,    0.0,   0.00,   0.00, 1009.6,   94.3, -999.0
08-01-2022, 00:12:31,    246,    0.0,    0.0,   0.00,   0.00, 1009.6,   94.2, -999.0
08-01-2022, 00:12:41,    245,    0.0,    0.0,   0.00,   0.00, 1009.6,   94.1, -999.0
08-01-2022, 00:12:51,    246,    0.0,   -0.1,   0.00,   0.00, 1009.6,   94.1, -999.0
08-01-2022, 00:13:01,    245,    0.0,    0.0,   0.00,   0.00, 1009.6,   94.1, -999.0
08-01-2022, 00:13:11,    270,    0.3,    0.0,   0.00,   0.00, 1009.7,   94.3, -999.0
08-01-2022, 00:13:20,    267,    0.0,    0.0,   0.00,   0.00, 1009.6,   94.3, -999.0
08-01-2022, 00:13:31,    267,    0.2,    0.0,   0.00,   0.00, 1009.7,   94.4, -999.0
08-01-2022, 00:13:41,    258,    0.6,    0.0,   0.00,   0.00, 1009.7,   94.3, -999.0
08-01-2022, 00:13:50,    258,    0.2,    0.0,   0.00,   0.00, 1009.7,   94.4, -999.0
08-01-2022, 00:14:00,    257,    0.0,    0.0,   0.00,   0.00, 1009.5,   94.1, -999.0
08-01-2022, 00:14:10,    257,    0.0,   -0.1,   0.00,   0.00, 1009.5,   94.0, -999.0
08-01-2022, 00:14:20,    258,    0.0,   -0.1,   0.00,   0.00, 1009.5,   94.0, -999.0
08-01-2022, 00:14:30,    258,    0.0,    0.0,   0.00,   0.00, 1009.5,   94.0, -999.0
08-01-2022, 00:14:40,    258,    0.0,    0.0,   0.00,   0.00, 1009.5,   94.1, -999.0
08-01-2022, 00:14:50,    257,    0.0,    0.0,   0.00,   0.00, 1009.6,   94.2, -999.0
08-01-2022, 00:15:00,    262,    0.1,    0.0,   0.00,   0.00, 1009.6,   94.2, -999.0
08-01-2022, 00:15:10,    274,    1.0,    0.1,   0.00,   0.00, 1009.7,   94.5, -999.0
08-01-2022, 00:15:20,    282,    1.3,    0.0,   0.00,   0.00, 1009.7,   94.5, -999.0
08-01-2022, 00:15:30,    282,    0.3,    0.0,   0.00,   0.00, 1009.7,   94.4, -999.0
08-01-2022, 00:15:40,    282,    0.5,    0.0,   0.00,   0.00, 1009.7,   94.5, -999.0
08-01-2022, 00:15:50,    282,    0.0,    0.0,   0.00,   0.00, 1009.6,   94.1, -999.0
08-01-2022, 00:16:00,    282,    0.1,    0.0,   0.00,   0.00, 1009.6,   94.2, -999.0
08-01-2022, 00:16:10,    282,    0.0,    0.0,   0.00,   0.00, 1009.6,   94.3, -999.0
08-01-2022, 00:16:20,    282,    0.0,    0.0,   0.00,   0.00, 1009.6,   94.0, -999.0
08-01-2022, 00:16:29,    282,    0.0,    0.0,   0.00,   0.00, 1009.5,   94.0, -999.0
08-01-2022, 00:16:40,    282,    0.0,   -0.1,   0.00,   0.00, 1009.6,   94.0, -999.0
08-01-2022, 00:16:49,    282,    0.0,    0.0,   0.00,   0.00, 1009.5,   94.0, -999.0
08-01-2022, 00:16:59,    282,    0.0,    0.0,   0.00,   0.00, 1009.6,   94.0, -999.0
08-01-2022, 00:17:10,    282,    0.0,    0.0,   0.00,   0.00, 1009.5,   94.1, -999.0
08-01-2022, 00:17:19,    282,    0.0,    0.0,   0.00,   0.00, 1009.5,   94.0, -999.0
08-01-2022, 00:17:29,    282,    0.0,    0.0,   0.00,   0.00, 1009.5,   94.1, -999.0
08-01-2022, 00:17:39,    282,    0.0,    0.0,   0.00,   0.00, 1009.5,   94.0, -999.0
08-01-2022, 00:17:49,    282,    0.0,    0.0,   0.00,   0.00, 1009.5,   94.0, -999.0
08-01-2022, 00:17:59,    250,    0.4,    0.0,   0.00,   0.00, 1009.7,   94.2, -999.0
08-01-2022, 00:18:09,    266,    1.5,    0.1,   0.00,   0.00, 1009.7,   94.4, -999.0
08-01-2022, 00:18:19,    266,    0.4,    0.0,   0.00,   0.00, 1009.7,   94.3, -999.0
08-01-2022, 00:18:29,    264,    0.4,    0.0,   0.00,   0.00, 1009.6,   94.1, -999.0
08-01-2022, 00:18:39,    264,    0.2,    0.1,   0.00,   0.00, 1009.6,   94.1, -999.0
08-01-2022, 00:18:49,    264,    0.0,   -0.1,   0.00,   0.00, 1009.5,   93.9, -999.0
08-01-2022, 00:18:59,    264,    0.0,    0.0,   0.00,   0.00, 1009.5,   93.9, -999.0
08-01-2022, 00:19:09,    264,    0.0,   -0.1,   0.00,   0.00, 1009.5,   93.9, -999.0
08-01-2022, 00:19:19,    264,    0.0,    0.0,   0.00,   0.00, 1009.5,   94.0, -999.0
08-01-2022, 00:19:28,    264,    0.0,    0.0,   0.00,   0.00, 1009.5,   94.0, -999.0
08-01-2022, 00:19:39,    264,    0.0,   -0.1,   0.00,   0.00, 1009.5,   94.0, -999.0
08-01-2022, 00:19:49,    264,    0.0,   -0.1,   0.00,   0.00, 1009.5,   94.0, -999.0
08-01-2022, 00:19:58,    264,    0.0,    0.0,   0.00,   0.00, 1009.5,   94.0, -999.0
08-01-2022, 00:20:08,    264,    0.0,    0.0,   0.00,   0.00, 1009.5,   94.0, -999.0
08-01-2022, 00:20:19,    264,    0.0,    0.0,   0.00,   0.00, 1009.5,   94.0, -999.0
08-01-2022, 00:20:28,    264,    0.0,    0.0,   0.00,   0.00, 1009.5,   94.0, -999.0
08-01-2022, 00:20:38,    264,    0.0,    0.0,   0.00,   0.00, 1009.5,   94.0, -999.0
08-01-2022, 00:20:48,    264,    0.0,    0.0,   0.00,   0.00, 1009.5,   94.0, -999.0
08-01-2022, 00:20:58,    264,    0.0,    0.0,   0.00,   0.00, 1009.5,   94.1, -999.0
08-01-2022, 00:21:08,    264,    0.0,    0.0,   0.00,   0.00, 1009.5,   94.1, -999.0
08-01-2022, 00:21:18,    264,    0.0,   -0.1,   0.00,   0.00, 1009.4,   94.0, -999.0
08-01-2022, 00:21:28,    264,    0.0,    0.0,   0.00,   0.00, 1009.4,   94.1, -999.0
08-01-2022, 00:21:38,    212,    0.0,    0.0,   0.00,   0.00, 1009.5,   94.3, -999.0
08-01-2022, 00:21:48,    211,    0.3,    0.1,   0.00,   0.00, 1009.6,   94.4, -999.0
08-01-2022, 00:21:58,    210,    0.6,    0.1,   0.00,   0.00, 1009.6,   94.3, -999.0
08-01-2022, 00:22:08,    211,    0.0,    0.0,   0.00,   0.00, 1009.4,   94.0, -999.0
08-01-2022, 00:22:18,    216,    0.5,    0.0,   0.00,   0.00, 1009.5,   94.3, -999.0
08-01-2022, 00:22:28,    217,    0.1,    0.0,   0.00,   0.00, 1009.5,   94.2, -999.0
08-01-2022, 00:22:37,    218,    0.0,    0.0,   0.00,   0.00, 1009.5,   94.1, -999.0
08-01-2022, 00:22:48,    235,    0.2,    0.1,   0.00,   0.00, 1009.5,   94.2, -999.0
08-01-2022, 00:22:58,    241,    0.9,    0.2,   0.00,   0.00, 1009.6,   94.4, -999.0
08-01-2022, 00:23:07,    241,    0.2,    0.1,   0.00,   0.00, 1009.5,   94.3, -999.0
08-01-2022, 00:23:18,    241,    0.0,    0.1,   0.00,   0.00, 1009.5,   94.0, -999.0
08-01-2022, 00:23:27,    241,    0.2,   -0.1,   0.00,   0.00, 1009.6,   94.3, -999.0
08-01-2022, 00:23:37,    241,    0.2,    0.2,   0.00,   0.00, 1009.6,   94.2, -999.0
08-01-2022, 00:23:47,    241,    0.0,    0.1,   0.00,   0.00, 1009.5,   94.1, -999.0
08-01-2022, 00:23:57,    241,    0.0,   -0.1,   0.00,   0.00, 1009.4,   93.9, -999.0
08-01-2022, 00:24:07,    241,    0.0,    0.0,   0.00,   0.00, 1009.4,   94.0, -999.0
08-01-2022, 00:24:17,    241,    0.0,    0.0,   0.00,   0.00, 1009.4,   94.1, -999.0
08-01-2022, 00:24:27,    241,    0.0,    0.1,   0.00,   0.00, 1009.4,   94.0, -999.0
08-01-2022, 00:24:37,    241,    0.0,    0.1,   0.00,   0.00, 1009.4,   94.0, -999.0
08-01-2022, 00:24:47,    241,    0.0,    0.1,   0.00,   0.00, 1009.4,   94.1, -999.0
08-01-2022, 00:24:57,    242,    0.0,    0.1,   0.00,   0.00, 1009.4,   94.0, -999.0
08-01-2022, 00:25:07,    245,    0.0,    0.1,   0.00,   0.00, 1009.4,   94.0, -999.0
08-01-2022, 00:25:17,    245,    0.0,    0.1,   0.00,   0.00, 1009.4,   94.0, -999.0
08-01-2022, 00:25:27,    245,    0.0,    0.1,   0.00,   0.00, 1009.4,   93.9, -999.0
08-01-2022, 00:25:37,    245,    0.0,    0.1,   0.00,   0.00, 1009.4,   94.0, -999.0
08-01-2022, 00:25:47,    245,    0.1,    0.1,   0.00,   0.00, 1009.5,   94.1, -999.0
08-01-2022, 00:25:57,    245,    0.0,    0.1,   0.00,   0.00, 1009.4,   94.1, -999.0
08-01-2022, 00:26:07,    246,    0.0,    0.0,   0.00,   0.00, 1009.4,   94.0, -999.0
08-01-2022, 00:26:16,    198,    0.4,    0.2,   0.00,   0.00, 1009.5,   94.3, -999.0
08-01-2022, 00:26:27,    223,    0.2,    0.1,   0.00,   0.00, 1009.5,   94.2, -999.0
08-01-2022, 00:26:36,    250,    0.2,    0.2,   0.00,   0.00, 1009.5,   94.2, -999.0
08-01-2022, 00:26:46,    243,    0.2,    0.2,   0.00,   0.00, 1009.5,   94.3, -999.0
08-01-2022, 00:26:56,    195,    0.0,    0.1,   0.00,   0.00, 1009.4,   94.1, -999.0
08-01-2022, 00:27:06,    254,    0.4,    0.1,   0.00,   0.00, 1009.5,   94.2, -999.0
08-01-2022, 00:27:16,    254,    0.4,    0.2,   0.00,   0.00, 1009.5,   94.3, -999.0
08-01-2022, 00:27:26,    245,    0.3,    0.2,   0.00,   0.00, 1009.5,   94.3, -999.0
08-01-2022, 00:27:36,    245,    0.1,    0.2,   0.00,   0.00, 1009.5,   94.1, -999.0
08-01-2022, 00:27:46,    245,    0.0,    0.1,   0.00,   0.00, 1009.4,   94.0, -999.0
08-01-2022, 00:27:56,    243,    0.1,    0.2,   0.00,   0.00, 1009.5,   94.1, -999.0
08-01-2022, 00:28:06,    235,    1.4,    0.1,   0.00,   0.00, 1009.5,   94.4, -999.0
08-01-2022, 00:28:16,    220,    0.6,    0.2,   0.00,   0.00, 1009.5,   94.2, -999.0
08-01-2022, 00:28:26,    219,    0.8,    0.2,   0.00,   0.00, 1009.5,   94.2, -999.0
08-01-2022, 00:28:36,    228,    0.4,    0.2,   0.00,   0.00, 1009.5,   94.2, -999.0
08-01-2022, 00:28:46,    229,    0.6,    0.2,   0.00,   0.00, 1009.5,   94.3, -999.0
08-01-2022, 00:28:56,    229,    0.3,    0.0,   0.00,   0.00, 1009.4,   94.2, -999.0
08-01-2022, 00:29:06,    229,    0.0,    0.1,   0.00,   0.00, 1009.3,   93.8, -999.0
08-01-2022, 00:29:16,    229,    0.0,    0.1,   0.00,   0.00, 1009.3,   93.9, -999.0
08-01-2022, 00:29:25,    229,    0.0,    0.1,   0.00,   0.00, 1009.3,   93.8, -999.0
08-01-2022, 00:29:36,    229,    0.0,    0.1,   0.00,   0.00, 1009.4,   93.9, -999.0
08-01-2022, 00:29:45,    194,    0.1,    0.1,   0.00,   0.00, 1009.4,   94.0, -999.0
08-01-2022, 00:29:55,    206,    0.2,    0.3,   0.00,   0.00, 1009.4,   94.0, -999.0
08-01-2022, 00:30:05,    236,    0.7,    0.1,   0.00,   0.00, 1009.5,   94.1, -999.0
08-01-2022, 00:30:15,    225,    0.6,    0.1,   0.00,   0.00, 1009.5,   94.0, -999.0
08-01-2022, 00:30:25,    251,    1.1,    0.2,   0.00,   0.00, 1009.5,   94.2, -999.0
08-01-2022, 00:30:35,    250,    0.1,    0.1,   0.00,   0.00, 1009.4,   93.9, -999.0
08-01-2022, 00:30:45,    249,    0.0,    0.1,   0.00,   0.00, 1009.4,   93.8, -999.0
08-01-2022, 00:30:55,    255,    0.0,    0.2,   0.00,   0.00, 1009.3,   93.8, -999.0
08-01-2022, 00:31:05,    256,    0.0,    0.1,   0.00,   0.00, 1009.3,   93.8, -999.0
08-01-2022, 00:31:15,    257,    0.1,    0.2,   0.00,   0.00, 1009.3,   94.0, -999.0
08-01-2022, 00:31:25,    256,    0.0,    0.1,   0.00,   0.00, 1009.3,   93.7, -999.0
08-01-2022, 00:31:35,    256,    0.0,    0.1,   0.00,   0.00, 1009.3,   93.9, -999.0
08-01-2022, 00:31:45,    256,    0.0,    0.1,   0.00,   0.00, 1009.3,   93.9, -999.0
08-01-2022, 00:31:55,    256,    0.0,    0.1,   0.00,   0.00, 1009.3,   93.8, -999.0
08-01-2022, 00:32:05,    205,    0.0,    0.1,   0.00,   0.00, 1009.3,   93.8, -999.0
08-01-2022, 00:32:15,    203,    1.2,    0.2,   0.00,   0.00, 1009.4,   94.2, -999.0
08-01-2022, 00:32:24,    204,    0.9,    0.2,   0.00,   0.00, 1009.4,   94.2, -999.0
08-01-2022, 00:32:34,    216,    0.0,    0.1,   0.00,   0.00, 1009.4,   94.1, -999.0
08-01-2022, 00:32:45,    220,    1.8,    0.2,   0.00,   0.00, 1009.4,   94.3, -999.0
08-01-2022, 00:32:54,    234,    2.9,    0.3,   0.00,   0.00, 1009.4,   94.1, -999.0
08-01-2022, 00:33:04,    213,    0.8,    0.3,   0.00,   0.00, 1009.4,   94.2, -999.0
08-01-2022, 00:33:15,    247,    0.2,    0.2,   0.00,   0.00, 1009.3,   94.0, -999.0
08-01-2022, 00:33:24,    246,    0.6,    0.2,   0.00,   0.00, 1009.4,   94.1, -999.0
08-01-2022, 00:33:34,    232,    0.9,    0.3,   0.00,   0.00, 1009.4,   94.1, -999.0
08-01-2022, 00:33:44,    227,    1.7,    0.3,   0.00,   0.00, 1009.4,   94.1, -999.0
08-01-2022, 00:33:54,    232,    1.7,    0.3,   0.00,   0.00, 1009.4,   94.1, -999.0
08-01-2022, 00:34:04,    232,    1.0,    0.3,   0.00,   0.00, 1009.4,   94.2, -999.0
08-01-2022, 00:34:14,    228,    0.6,    0.3,   0.00,   0.00, 1009.4,   94.2, -999.0
08-01-2022, 00:34:24,    228,    0.2,    0.2,   0.00,   0.00, 1009.3,   94.0, -999.0
08-01-2022, 00:34:34,    227,    0.0,    0.2,   0.00,   0.00, 1009.3,   93.8, -999.0
08-01-2022, 00:34:44,    211,    0.2,    0.2,   0.00,   0.00, 1009.3,   93.8, -999.0
08-01-2022, 00:34:54,    211,    0.4,    0.3,   0.00,   0.00, 1009.4,   94.0, -999.0
08-01-2022, 00:35:04,    212,    0.0,    0.2,   0.00,   0.00, 1009.3,   93.7, -999.0
08-01-2022, 00:35:14,    212,    0.0,    0.2,   0.00,   0.00, 1009.3,   93.7, -999.0
08-01-2022, 00:35:24,    212,    0.0,    0.2,   0.00,   0.00, 1009.3,   93.7, -999.0
08-01-2022, 00:35:33,    212,    0.0,    0.2,   0.00,   0.00, 1009.3,   93.8, -999.0
08-01-2022, 00:35:44,    212,    0.0,    0.1,   0.00,   0.00, 1009.3,   93.7, -999.0
08-01-2022, 00:35:54,    212,    0.0,    0.2,   0.00,   0.00, 1009.3,   93.7, -999.0
08-01-2022, 00:36:03,    212,    0.0,    0.2,   0.00,   0.00, 1009.3,   93.7, -999.0
08-01-2022, 00:36:13,    212,    0.1,    0.2,   0.00,   0.00, 1009.3,   93.8, -999.0
08-01-2022, 00:36:24,    213,    0.3,    0.3,   0.00,   0.00, 1009.4,   93.9, -999.0
08-01-2022, 00:36:33,    250,    1.6,    0.4,   0.00,   0.00, 1009.4,   94.1, -999.0
08-01-2022, 00:36:43,    243,    0.9,    0.3,   0.00,   0.00, 1009.4,   94.0, -999.0
08-01-2022, 00:36:53,    241,    0.2,    0.3,   0.00,   0.00, 1009.3,   93.8, -999.0
08-01-2022, 00:37:03,    241,    0.0,    0.2,   0.00,   0.00, 1009.3,   93.7, -999.0
08-01-2022, 00:37:13,    241,    0.0,    0.2,   0.00,   0.00, 1009.3,   93.6, -999.0
08-01-2022, 00:37:23,    241,    0.0,    0.2,   0.00,   0.00, 1009.3,   93.7, -999.0
08-01-2022, 00:37:33,    241,    0.0,    0.3,   0.00,   0.00, 1009.3,   93.8, -999.0
08-01-2022, 00:37:43,    241,    0.0,    0.2,   0.00,   0.00, 1009.3,   93.8, -999.0
08-01-2022, 00:37:53,    241,    0.0,    0.2,   0.00,   0.00, 1009.3,   93.6, -999.0
08-01-2022, 00:38:03,    241,    0.0,    0.3,   0.00,   0.00, 1009.3,   93.6, -999.0
08-01-2022, 00:38:13,    241,    0.0,    0.3,   0.00,   0.00, 1009.3,   93.6, -999.0
08-01-2022, 00:38:23,    241,    0.0,    0.2,   0.00,   0.00, 1009.3,   93.6, -999.0
08-01-2022, 00:38:33,    241,    0.0,    0.2,   0.00,   0.00, 1009.3,   93.7, -999.0
08-01-2022, 00:38:42,    241,    0.0,    0.2,   0.00,   0.00, 1009.3,   93.6, -999.0
08-01-2022, 00:38:53,    241,    0.0,    0.3,   0.00,   0.00, 1009.2,   93.6, -999.0
08-01-2022, 00:39:03,    241,    0.0,    0.2,   0.00,   0.00, 1009.2,   93.6, -999.0
08-01-2022, 00:39:12,    241,    0.0,    0.2,   0.00,   0.00, 1009.2,   93.6, -999.0
08-01-2022, 00:39:22,    241,    0.0,    0.2,   0.00,   0.00, 1009.2,   93.5, -999.0
08-01-2022, 00:39:32,    241,    0.0,    0.2,   0.00,   0.00, 1009.2,   93.6, -999.0
08-01-2022, 00:39:42,    241,    0.0,    0.2,   0.00,   0.00, 1009.2,   93.6, -999.0
08-01-2022, 00:39:52,    241,    0.0,    0.2,   0.00,   0.00, 1009.2,   93.6, -999.0
08-01-2022, 00:40:02,    241,    0.0,    0.2,   0.00,   0.00, 1009.2,   93.6, -999.0
08-01-2022, 00:40:12,    237,    0.0,    0.2,   0.00,   0.00, 1009.2,   93.5, -999.0
08-01-2022, 00:40:22,    237,    0.7,    0.3,   0.00,   0.00, 1009.4,   93.9, -999.0
08-01-2022, 00:40:32,    224,    0.6,    0.3,   0.00,   0.00, 1009.4,   93.9, -999.0
08-01-2022, 00:40:42,    250,    1.0,    0.4,   0.00,   0.00, 1009.4,   93.9, -999.0
08-01-2022, 00:40:52,    253,    0.5,    0.3,   0.00,   0.00, 1009.2,   93.7, -999.0
08-01-2022, 00:41:02,    253,    0.0,    0.2,   0.00,   0.00, 1009.1,   93.5, -999.0
08-01-2022, 00:41:12,    253,    0.0,    0.2,   0.00,   0.00, 1009.1,   93.5, -999.0
08-01-2022, 00:41:22,    253,    0.0,    0.2,   0.00,   0.00, 1009.1,   93.5, -999.0
08-01-2022, 00:41:32,    253,    0.0,    0.2,   0.00,   0.00, 1009.2,   93.3, -999.0
08-01-2022, 00:41:42,    252,    0.0,    0.2,   0.00,   0.00, 1009.1,   93.4, -999.0
08-01-2022, 00:41:52,    253,    0.0,    0.3,   0.00,   0.00, 1009.1,   93.5, -999.0
08-01-2022, 00:42:02,    253,    0.0,    0.3,   0.00,   0.00, 1009.1,   93.5, -999.0
08-01-2022, 00:42:12,    253,    0.0,    0.2,   0.00,   0.00, 1009.1,   93.4, -999.0
08-01-2022, 00:42:21,    254,    0.2,    0.2,   0.00,   0.00, 1009.2,   93.6, -999.0
08-01-2022, 00:42:32,    253,    0.0,    0.2,   0.00,   0.00, 1009.1,   93.5, -999.0
08-01-2022, 00:42:41,    254,    0.0,    0.3,   0.00,   0.00, 1009.1,   93.5, -999.0
08-01-2022, 00:42:51,    254,    0.0,    0.2,   0.00,   0.00, 1009.1,   93.5, -999.0
08-01-2022, 00:43:01,    254,    0.0,    0.3,   0.00,   0.00, 1009.1,   93.5, -999.0
08-01-2022, 00:43:11,    253,    0.0,    0.2,   0.00,   0.00, 1009.1,   93.6, -999.0
08-01-2022, 00:43:21,    253,    0.0,    0.3,   0.00,   0.00, 1009.1,   93.6, -999.0
08-01-2022, 00:43:31,    227,    0.0,    0.2,   0.00,   0.00, 1009.1,   93.6, -999.0
08-01-2022, 00:43:41,    227,    0.1,    0.3,   0.00,   0.00, 1009.1,   93.6, -999.0
08-01-2022, 00:43:51,    227,    0.0,    0.3,   0.00,   0.00, 1009.1,   93.6, -999.0
08-01-2022, 00:44:01,    226,    0.0,    0.3,   0.00,   0.00, 1009.1,   93.7, -999.0
08-01-2022, 00:44:11,    226,    0.0,    0.2,   0.00,   0.00, 1009.1,   93.5, -999.0
08-01-2022, 00:44:21,    226,    0.0,    0.3,   0.00,   0.00, 1009.1,   93.5, -999.0
08-01-2022, 00:44:31,    226,    0.0,    0.3,   0.00,   0.00, 1009.0,   93.5, -999.0
08-01-2022, 00:44:41,    227,    0.0,    0.3,   0.00,   0.00, 1009.1,   93.5, -999.0
08-01-2022, 00:44:51,    227,    0.0,    0.3,   0.00,   0.00, 1009.1,   93.4, -999.0
08-01-2022, 00:45:02,    226,    0.0,    0.3,   0.00,   0.00, 1009.1,   93.5, -999.0
08-01-2022, 00:45:11,    227,    0.0,    0.3,   0.00,   0.00, 1009.1,   93.4, -999.0
08-01-2022, 00:45:20,    226,    0.0,    0.2,   0.00,   0.00, 1009.0,   93.5, -999.0
08-01-2022, 00:45:30,    226,    0.0,    0.3,   0.00,   0.00, 1009.1,   93.4, -999.0
08-01-2022, 00:45:41,    226,    0.0,    0.3,   0.00,   0.00, 1009.1,   93.4, -999.0
08-01-2022, 00:45:50,    226,    0.0,    0.3,   0.00,   0.00, 1009.1,   93.4, -999.0
08-01-2022, 00:46:00,    226,    0.0,    0.2,   0.00,   0.00, 1009.1,   93.4, -999.0
08-01-2022, 00:46:10,    226,    0.0,    0.3,   0.00,   0.00, 1009.1,   93.5, -999.0
08-01-2022, 00:46:20,    227,    0.0,    0.2,   0.00,   0.00, 1009.0,   93.3, -999.0
08-01-2022, 00:46:30,    212,    0.3,    0.4,   0.00,   0.00, 1009.1,   93.6, -999.0
08-01-2022, 00:46:40,    220,    0.4,    0.4,   0.00,   0.00, 1009.2,   93.7, -999.0